Regional Weather Roundup
Issued by NWS

Home | Current Version | Previous Version | Graphics & Text | Print | Product List | Glossary On
Versions: 1 2 3 4 5 6 7 8 9 10 11 12 13 14 15 16 17 18 19 20 21 22 23 24 25 26 27 28 29 30 31 32 33 34 35 36 37 38 39 40 41 42 43 44 45 46 47 48 49 50
000
ASUS43 KMPX 301401
RWRMN
WEATHER ROUNDUP FOR MINNESOTA
NATIONAL WEATHER SERVICE TWIN CITIES/CHANHASSEN MN
900 AM CDT TUE AUG 30 2016


NOTE: "FAIR" INDICATES FEW OR NO CLOUDS BELOW 12,000 FEET WITH NO
SIGNIFICANT WEATHER AND/OR OBSTRUCTIONS TO VISIBILITY. N/A MEANS
CURRENT SKY AND/OR WEATHER CONDITIONS ARE NOT AVAILABLE.

MNZ060>063-068>070-301500-
   Twin Cities Metro

CITY           SKY/WX    TMP DP  RH WIND       PRES   REMARKS
TWIN CITIES    CLOUDY    69  65  86 NW9       30.17S
ST PAUL        CLOUDY    69  65  86 NW10      30.17S
CRYSTAL        PTSUNNY   69  63  81 N7        30.16S
BLAINE         PTSUNNY   68  68 100 N8        30.18R
LAKEVILLE      CLOUDY    68  68 100 NW8       30.17S
EDEN PRAIRIE   PTSUNNY   70  66  87 N9        30.16S
LAKEVILLE      CLOUDY    68  68 100 NW8       30.17S
SOUTH ST PAUL  CLOUDY    70  67  89 NW6       30.16S
LAKE ELMO      FAIR      68  66  94 W5        30.18S
$$
MNZ001>005-007-008-013>017-022>024-027-028-301500-
   Northwest Minnesota

CITY           SKY/WX    TMP DP  RH WIND       PRES   REMARKS
BEMIDJI        SUNNY     58  55  89 NW5       30.24F
HALLOCK        SUNNY     55  54  94 CALM      30.25S
ROSEAU         SUNNY     59  54  82 W5        30.24S
WARROAD        SUNNY     57  52  82 W5        30.24S
THIEF RVR FALL SUNNY     60  54  80 CALM      30.26S
CROOKSTON      SUNNY     57  54  88 W3        30.26S
FOSSTON        SUNNY     57  55  94 CALM      30.26S
DETROIT LAKES  SUNNY     63  57  82 CALM      30.26F
MOORHEAD       SUNNY     61  54  77 CALM      30.26S
PARK RAPIDS    SUNNY     62  56  80 N6        30.24F
MAHNOMEN       FAIR      59  56  91 CALM      30.25F
$$
MNZ006-009>011-018-025>026-301500-
   North Central Minnesota

CITY           SKY/WX    TMP DP  RH WIND       PRES   REMARKS
BAUDETTE       SUNNY     59  53  80 W6        30.22S
FLAG ISLAND    SUNNY     57  50  77 NW5       30.21S
INTL FALLS     SUNNY     60  55  83 NW7       30.21S
WASKISH        SUNNY     61  55  82 NW5       30.23S
BIG FORK       SUNNY     61  55  82 CALM      30.22F
LONGVILLE      SUNNY     63  55  77 N3        30.22S
GRAND RAPIDS   SUNNY     61  56  83 NW8       30.23F
ORR            SUNNY     59  54  82 NW3       30.18F
COOK           SUNNY     57  57 100 NW5       30.21S
WALKER         FAIR      58  55  88 CALM      30.24S
$$
MNZ012-019>021-037-301500-
   Northeast Minnesota

CITY           SKY/WX    TMP DP  RH WIND       PRES   REMARKS
DULUTH         CLOUDY    64  58  80 N10       30.18S
ELY            SUNNY     59  54  82 NW3       30.19S
HIBBING        SUNNY     60  54  80 N8        30.21R
EVELETH        SUNNY     62  52  71 N7G17     30.20F
DULUTH HARBOR  CLOUDY    66  61  82 N8        30.18R
TWO HARBORS    SUNNY     66  59  77 N5        30.15S
SILVER BAY     SUNNY     66  55  68 NW6       30.15S
GRAND MARAIS     N/A     67  49  52 CALM      30.13R
G MARAIS ARPRT MOSUNNY   61  52  72 N10       30.16R
$$
MNZ029>031-032-039>041-046>048-054>057-064-301500-
   West Central Minnesota

CITY           SKY/WX    TMP DP  RH WIND       PRES   REMARKS
FERGUS FALLS   SUNNY     64  57  77 NE3       30.25F
WHEATON        MOSUNNY   63  59  88 CALM      30.26S
MORRIS         MOSUNNY   66  63  88 N6        30.22S
ALEXANDRIA     SUNNY     63  52  67 N9        30.25S
ELBOW LAKE     FAIR      63  58  84 NE7       30.24S
WADENA         SUNNY     63  54  72 N3        30.24S
GLENWOOD       MOSUNNY   64  55  72 N9        30.23S
APPLETON       SUNNY     66  59  77 N7        30.22S
BENSON         SUNNY     66  59  77 NE3       30.22S
ORTONVILLE     MOSUNNY   66  61  82 CALM      30.23S
MADISON        MOSUNNY   64  63  94 NW6       30.22S
WILLMAR        FAIR      66  64  94 NE8       30.23R
$$
MNZ033>034-036-042>043-049>051-058-059-301500-
   Central Minnesota

CITY           SKY/WX    TMP DP  RH WIND       PRES   REMARKS
ST CLOUD       MOSUNNY   65  61  87 N7        30.20S
SAUK CENTRE    FAIR      65  56  75 N8        30.23S
PAYNESVILLE    MOSUNNY   65  61  86 N6        30.22S
AITKIN           N/A     64  55  72 N8        30.20S
PINE RIVER     SUNNY     63  55  77 NW6       30.26S
BRAINERD       CLOUDY    63  55  75 N9        30.22S
STAPLES        SUNNY     61  55  82 N7        30.23F
LONG PRAIRIE   FAIR      61  54  77 NW7       30.23R
LITTLE FALLS   PTSUNNY   63  55  77 N5        30.22R
LITCHFIELD     CLOUDY    70  66  88 N6        30.21S
BUFFALO        PTSUNNY   67  62  83 N7        30.20S
MAPLE LAKE     CLOUDY    67  64  88 N5        30.21R
HUTCHINSON     CLOUDY    69  68  96 NW7       30.21S
$$
MNZ037-044-045-052-053-301500-
   East Central Minnesota

CITY           SKY/WX    TMP DP  RH WIND       PRES   REMARKS
PRINCETON        N/A     66  64  94 N8G18     30.20R
MORA           MOSUNNY   64  61  88 CALM      30.21R
CAMBRIDGE      CLOUDY    66  61  82 N6        30.17S
RUSH CITY      CLOUDY    64  61  90 N6        30.19R
MOOSE LAKE     PTSUNNY   63  57  82 N7        30.18R
HINCKLEY       FAIR      64  61  88 N8        30.19R
CLOQUET        MOSUNNY   63  57  82 N9G16     30.19R
MCGREGOR       MOSUNNY   63  57  82 NW7       30.21R
$$
MNZ071>073-080-081-089-090-097-098-301500-
   Southwest Minnesota

CITY           SKY/WX    TMP DP  RH WIND       PRES   REMARKS
MONTEVIDEO     PTSUNNY   66  64  94 N3        30.23S
GRANITE FALLS  CLOUDY    68  66  93 NW7       30.22S
CANBY          PTSUNNY   64  62  91 W3        30.24S
MARSHALL       CLOUDY    66  65  96 N9        30.21S
REDWOOD FALLS  CLOUDY    69  66  90 N7        30.20R
OLIVIA         CLOUDY    70  68  94 CALM      30.19S
PIPESTONE        N/A     68  64  88 SE2       30.21S
WINDOM         PTSUNNY   68  64  88 NW3       30.20R
WORTHINGTON    CLOUDY    71  64  78 S6        30.21R
JACKSON        CLOUDY    68  64  88 SW6       30.20R
TRACY          CLOUDY    68  67  96 NW8       30.21R
SLAYTON        CLOUDY    66  64  94 W3        30.21S
$$
MNZ065>067-074>077-082>085-091>093-301500-
   South Central Minnesota

CITY           SKY/WX    TMP DP  RH WIND       PRES   REMARKS
NEW ULM        PTSUNNY   66  66 100 N6        30.19R
ST JAMES       CLOUDY    66  64  94 N3        30.20R
FAIRMONT       CLOUDY    69  66  90 NW5       30.18R
GLENCOE        CLOUDY    68  68 100 NW5       30.18F
FARIBAULT      CLOUDY    70  64  83 NW5       30.19S
OWATONNA       CLOUDY    70  64  83 N6        30.19R
WASECA         MOSUNNY   68  63  83 N8        30.20R
ALBERT LEA     CLOUDY    70  66  88 N7        30.18R
$$
MNZ078>079-086>088-094>096-301500-
   Southeast Minnesota

CITY           SKY/WX    TMP DP  RH WIND       PRES   REMARKS
ROCHESTER      MOSUNNY   70  65  84 N10       30.19R
RED WING       CLOUDY    70  66  88 CALM      30.15F
STANTON        CLOUDY    70  64  83 CALM      30.17R
DODGE CENTER   CLOUDY    68  64  88 N7        30.18S
WINONA         CLOUDY    73  68  83 CALM      30.16S
AUSTIN         PTSUNNY   68  64  88 N3        30.17R
PRESTON        CLOUDY    69  67  94 NW5       30.16S
$$
ABBREVIATIONS USED IN REMARKS
   TC - TEMPERATURES IN CELSIUS
  WCI - WIND CHILL INDEX
   HX - HEAT INDEX
  VSB - VISIBILITY
$$




USA.gov is the U.S. government's official web portal to all federal, state and local government web resources and services.